| time (UTC) | temp F | wind direction | speed knots | gust knots | rain 1hr in | rain 24hr in | rain mn in | humidity % | barometer mb |
| 20260902060903 | 59 | 149 | 0.0 | 0.0 | 0.00 | 0.00 | 0.00 | 90 | 1019.3 |
| 20260902060358 | 59 | 149 | 0.0 | 0.0 | 0.00 | 0.00 | 0.00 | 90 | 1019.2 |
| 20260902055854 | 59 | 149 | 0.0 | 0.0 | 0.00 | 0.00 | 0.00 | 91 | 1019.1 |
| 20260902055350 | 60 | 149 | 0.0 | 0.0 | 0.00 | 0.00 | 0.00 | 90 | 1019.1 |
| 20260902054845 | 60 | 149 | 0.0 | 0.0 | 0.00 | 0.00 | 0.00 | 90 | 1019.2 |
| 20260902054340 | 60 | 149 | 0.0 | 0.0 | 0.00 | 0.00 | 0.00 | 90 | 1019.1 |
| 20260902053836 | 60 | 149 | 0.0 | 0.0 | 0.00 | 0.00 | 0.00 | 90 | 1019.2 |
| 20260902053331 | 60 | 149 | 0.0 | 0.0 | 0.00 | 0.00 | 0.00 | 90 | 1019.2 |
| 20260902052830 | 60 | 149 | 0.0 | 0.0 | 0.00 | 0.00 | 0.00 | 89 | 1019.1 |
| 20260902052325 | 61 | 155 | 0.0 | 0.0 | 0.00 | 0.00 | 0.00 | 89 | 1019.2 |
| 20260902051820 | 60 | 162 | 0.0 | 0.0 | 0.00 | 0.00 | 0.00 | 90 | 1019.1 |
| 20260902051320 | 60 | 163 | 0.0 | 0.0 | 0.00 | 0.00 | 0.00 | 89 | 1019.3 |
| 20260902050814 | 60 | 164 | 0.0 | 0.0 | 0.00 | 0.00 | 0.00 | 89 | 1019.1 |
| 20260902050314 | 60 | 164 | 0.0 | 0.0 | 0.00 | 0.00 | 0.00 | 89 | 1019.2 |
| 20260902045809 | 60 | 164 | 0.0 | 0.0 | 0.00 | 0.00 | 0.00 | 89 | 1019.4 |
| 20260902045306 | 60 | 165 | 0.0 | 0.0 | 0.00 | 0.00 | 0.00 | 89 | 1019.1 |
| 20260902044801 | 61 | 165 | 0.0 | 0.0 | 0.00 | 0.00 | 0.00 | 87 | 1019.2 |
| 20260902044256 | 61 | 165 | 0.0 | 0.0 | 0.00 | 0.00 | 0.00 | 88 | 1019.0 |
| 20260902043751 | 61 | 165 | 0.0 | 0.0 | 0.00 | 0.00 | 0.00 | 88 | 1019.1 |
| 20260902043247 | 61 | 166 | 0.0 | 0.0 | 0.00 | 0.00 | 0.00 | 88 | 1019.0 |
| 20260902042745 | 61 | 166 | 0.0 | 0.0 | 0.00 | 0.00 | 0.00 | 86 | 1019.1 |
| 20260902042240 | 62 | 167 | 0.0 | 0.0 | 0.00 | 0.00 | 0.00 | 86 | 1018.9 |
| 20260902041736 | 62 | 167 | 0.0 | 0.0 | 0.00 | 0.00 | 0.00 | 86 | 1018.9 |
| 20260902041236 | 62 | 168 | 0.0 | 0.0 | 0.00 | 0.00 | 0.00 | 85 | 1018.7 |
| 20260902040735 | 62 | 171 | 0.0 | 0.0 | 0.00 | 0.00 | 0.00 | 84 | 1019.0 |
| 20260902040230 | 63 | 171 | 0.0 | 0.0 | 0.00 | 0.00 | 0.00 | 84 | 1018.6 |
| 20260902035729 | 63 | 171 | 0.0 | 0.0 | 0.00 | 0.00 | 0.00 | 84 | 1018.8 |
| 20260902035225 | 63 | 171 | 0.0 | 0.0 | 0.00 | 0.00 | 0.00 | 84 | 1018.8 |
| 20260902034723 | 64 | 174 | 0.0 | 0.0 | 0.00 | 0.00 | 0.00 | 83 | 1018.7 |
| 20260902034218 | 64 | 171 | 0.0 | 0.0 | 0.00 | 0.00 | 0.00 | 83 | 1018.6 |
| 20260902033717 | 64 | 190 | 0.0 | 0.0 | 0.00 | 0.00 | 0.00 | 82 | 1018.7 |
| 20260902033212 | 64 | 176 | 0.0 | 1.7 | 0.00 | 0.00 | 0.00 | 81 | 1018.6 |
| 20260902032710 | 64 | 162 | 0.0 | 0.0 | 0.00 | 0.00 | 0.00 | 80 | 1018.5 |
| 20260902032206 | 64 | 164 | 0.0 | 0.0 | 0.00 | 0.00 | 0.00 | 80 | 1018.3 |
| 20260902031705 | 65 | 169 | 0.0 | 0.0 | 0.00 | 0.00 | 0.00 | 79 | 1018.3 |
| 20260902031201 | 65 | 170 | 0.0 | 0.0 | 0.00 | 0.00 | 0.00 | 78 | 1018.3 |
| 20260902030656 | 65 | 170 | 0.0 | 0.0 | 0.00 | 0.00 | 0.00 | 78 | 1018.3 |
| 20260902030156 | 65 | 156 | 0.0 | 0.0 | 0.00 | 0.00 | 0.00 | 77 | 1018.4 |
| 20260902025650 | 65 | 164 | 0.0 | 0.0 | 0.00 | 0.00 | 0.00 | 76 | 1018.3 |
| 20260902025146 | 66 | 180 | 0.9 | 0.9 | 0.00 | 0.00 | 0.00 | 76 | 1018.2 |
| 20260902024641 | 66 | 165 | 0.0 | 1.7 | 0.00 | 0.00 | 0.00 | 75 | 1017.9 |
| 20260902024136 | 66 | 212 | 0.9 | 1.7 | 0.00 | 0.00 | 0.00 | 74 | 1018.0 |
| 20260902023631 | 66 | 199 | 1.7 | 1.7 | 0.00 | 0.00 | 0.00 | 74 | 1018.0 |
| 20260902023126 | 67 | 121 | 0.0 | 0.0 | 0.00 | 0.00 | 0.00 | 73 | 1018.0 |
| 20260902022625 | 67 | 153 | 0.0 | 0.9 | 0.00 | 0.00 | 0.00 | 72 | 1017.8 |
| 20260902022122 | 68 | 218 | 0.9 | 1.7 | 0.00 | 0.00 | 0.00 | 72 | 1017.8 |
| 20260902021617 | 68 | 221 | 0.9 | 1.7 | 0.00 | 0.00 | 0.00 | 71 | 1017.9 |
| 20260902021112 | 69 | 207 | 1.7 | 1.7 | 0.00 | 0.00 | 0.00 | 69 | 1018.2 |
| 20260902020608 | 69 | 96 | 0.9 | 0.9 | 0.00 | 0.00 | 0.00 | 68 | 1017.8 |
| 20260902020103 | 69 | 133 | 0.0 | 0.9 | 0.00 | 0.00 | 0.00 | 67 | 1017.6 |
| 20260902015559 | 70 | 147 | 0.9 | 0.9 | 0.00 | 0.00 | 0.00 | 65 | 1018.0 |
| 20260902015054 | 70 | 156 | 0.0 | 0.0 | 0.00 | 0.00 | 0.00 | 64 | 1018.0 |
| 20260902014550 | 70 | 127 | 0.9 | 1.7 | 0.00 | 0.00 | 0.00 | 64 | 1017.8 |
| 20260902014045 | 71 | 204 | 0.9 | 1.7 | 0.00 | 0.00 | 0.00 | 63 | 1017.7 |
| 20260902013545 | 71 | 264 | 1.7 | 3.5 | 0.00 | 0.00 | 0.00 | 62 | 1017.8 |
| 20260902013041 | 72 | 48 | 0.9 | 1.7 | 0.00 | 0.00 | 0.00 | 61 | 1017.7 |
| 20260902012536 | 73 | 101 | 0.9 | 0.9 | 0.00 | 0.00 | 0.00 | 60 | 1017.9 |
| 20260902012031 | 73 | 336 | 0.9 | 1.7 | 0.00 | 0.00 | 0.00 | 59 | 1017.7 |
| 20260902011532 | 74 | 259 | 0.0 | 0.0 | 0.00 | 0.00 | 0.00 | 59 | 1017.7 |
| 20260902011032 | 74 | 161 | 0.0 | 1.7 | 0.00 | 0.00 | 0.00 | 59 | 1017.9 |
| 20260902010531 | 74 | 226 | 0.9 | 1.7 | 0.00 | 0.00 | 0.00 | 59 | 1017.7 |
| 20260902010027 | 74 | 163 | 1.7 | 2.6 | 0.00 | 0.00 | 0.00 | 59 | 1017.8 |
| 20260902005524 | 75 | 267 | 3.5 | 5.2 | 0.00 | 0.00 | 0.00 | 59 | 1017.9 |
| 20260902005021 | 75 | 110 | 0.0 | 0.9 | 0.00 | 0.00 | 0.00 | 60 | 1017.7 |
| 20260902004520 | 74 | 207 | 0.9 | 2.6 | 0.00 | 0.00 | 0.00 | 61 | 1017.9 |
| 20260902004016 | 75 | 171 | 0.9 | 1.7 | 0.00 | 0.00 | 0.00 | 61 | 1018.0 |
| 20260902003511 | 75 | 291 | 0.9 | 1.7 | 0.00 | 0.00 | 0.00 | 62 | 1017.9 |
| 20260902003006 | 75 | 222 | 3.5 | 5.2 | 0.00 | 0.00 | 0.00 | 61 | 1018.1 |
| 20260902002503 | 75 | 129 | 0.0 | 1.7 | 0.00 | 0.00 | 0.00 | 61 | 1017.9 |
| 20260902002001 | 75 | 170 | 0.0 | 1.7 | 0.00 | 0.00 | 0.00 | 61 | 1017.9 |
| 20260902001456 | 75 | 138 | 0.9 | 1.7 | 0.00 | 0.00 | 0.00 | 62 | 1017.8 |
| 20260902000952 | 76 | 279 | 3.5 | 5.2 | 0.00 | 0.00 | 0.00 | 61 | 1018.1 |
| 20260902000447 | 75 | 161 | 0.0 | 1.7 | 0.00 | 0.00 | 0.00 | 62 | 1018.0 |
| 20260901235941 | 76 | 130 | 0.9 | 6.1 | 0.00 | 0.00 | 0.00 | 62 | 1018.1 |
| 20260901235436 | 76 | 121 | 0.0 | 1.7 | 0.00 | 0.00 | 0.00 | 63 | 1018.0 |
| 20260901234932 | 76 | 230 | 2.6 | 3.5 | 0.00 | 0.00 | 0.00 | 61 | 1017.9 |
| 20260901234426 | 76 | 303 | 3.5 | 5.2 | 0.00 | 0.00 | 0.00 | 62 | 1018.2 |
| 20260901233920 | 76 | 224 | 1.7 | 2.6 | 0.00 | 0.00 | 0.00 | 61 | 1018.0 |
| 20260901233415 | 77 | 183 | 1.7 | 5.2 | 0.00 | 0.00 | 0.00 | 61 | 1017.9 |
| 20260901232912 | 77 | 305 | 0.9 | 1.7 | 0.00 | 0.00 | 0.00 | 61 | 1018.1 |
| 20260901232407 | 76 | 261 | 3.5 | 7.0 | 0.00 | 0.00 | 0.00 | 61 | 1018.1 |
| 20260901231902 | 77 | 188 | 3.5 | 5.2 | 0.00 | 0.00 | 0.00 | 60 | 1018.1 |
| 20260901231358 | 77 | 146 | 1.7 | 7.0 | 0.00 | 0.00 | 0.00 | 61 | 1018.5 |
| 20260901230855 | 77 | 218 | 4.3 | 6.1 | 0.00 | 0.00 | 0.00 | 59 | 1018.3 |
| 20260901230354 | 78 | 232 | 2.6 | 6.1 | 0.00 | 0.00 | 0.00 | 59 | 1018.2 |
| 20260901225850 | 78 | 288 | 2.6 | 5.2 | 0.00 | 0.00 | 0.00 | 59 | 1018.5 |
| 20260901225349 | 77 | 186 | 0.9 | 2.6 | 0.00 | 0.00 | 0.00 | 59 | 1018.5 |
| 20260901224844 | 78 | 178 | 3.5 | 9.6 | 0.00 | 0.00 | 0.00 | 59 | 1018.4 |
| 20260901224340 | 77 | 248 | 4.3 | 6.1 | 0.00 | 0.00 | 0.00 | 60 | 1018.6 |
| 20260901223836 | 78 | 258 | 2.6 | 7.8 | 0.00 | 0.00 | 0.00 | 60 | 1018.5 |
| 20260901223332 | 78 | 243 | 1.7 | 5.2 | 0.00 | 0.00 | 0.00 | 59 | 1018.5 |
| 20260901222827 | 78 | 354 | 1.7 | 7.0 | 0.00 | 0.00 | 0.00 | 59 | 1018.4 |
| 20260901222323 | 78 | 297 | 5.2 | 6.1 | 0.00 | 0.00 | 0.00 | 59 | 1018.5 |
| 20260901221819 | 78 | 195 | 0.9 | 2.6 | 0.00 | 0.00 | 0.00 | 59 | 1018.5 |
| 20260901221315 | 78 | 230 | 1.7 | 6.1 | 0.00 | 0.00 | 0.00 | 58 | 1018.5 |
| 20260901220813 | 79 | 307 | 1.7 | 6.1 | 0.00 | 0.00 | 0.00 | 58 | 1018.6 |
| 20260901220307 | 79 | 283 | 3.5 | 7.0 | 0.00 | 0.00 | 0.00 | 58 | 1018.4 |
| 20260901215806 | 79 | 298 | 3.5 | 3.5 | 0.00 | 0.00 | 0.00 | 58 | 1018.5 |
| 20260901215306 | 79 | 244 | 1.7 | 3.5 | 0.00 | 0.00 | 0.00 | 59 | 1018.6 |
| 20260901214804 | 80 | 344 | 2.6 | 6.1 | 0.00 | 0.00 | 0.00 | 57 | 1018.5 |
| 20260901214303 | 80 | 181 | 2.6 | 5.2 | 0.00 | 0.00 | 0.00 | 58 | 1018.6 |
| 20260901213758 | 80 | 213 | 1.7 | 5.2 | 0.00 | 0.00 | 0.00 | 59 | 1018.5 |
| 20260901213252 | 80 | 163 | 0.9 | 1.7 | 0.00 | 0.00 | 0.00 | 60 | 1018.6 |
| 20260901212746 | 80 | 234 | 1.7 | 6.1 | 0.00 | 0.00 | 0.00 | 59 | 1018.6 |
| 20260901212242 | 80 | 149 | 0.9 | 1.7 | 0.00 | 0.00 | 0.00 | 59 | 1018.8 |
| 20260901211737 | 80 | 316 | 0.9 | 5.2 | 0.00 | 0.00 | 0.00 | 59 | 1018.7 |
| 20260901211234 | 79 | 216 | 2.6 | 6.1 | 0.00 | 0.00 | 0.00 | 60 | 1018.6 |
| 20260901210730 | 80 | 299 | 3.5 | 6.1 | 0.00 | 0.00 | 0.00 | 59 | 1018.9 |
| 20260901210225 | 80 | 62 | 0.9 | 5.2 | 0.00 | 0.00 | 0.00 | 60 | 1018.8 |
| 20260901205721 | 79 | 263 | 4.3 | 6.1 | 0.00 | 0.00 | 0.00 | 59 | 1018.8 |
| 20260901205221 | 79 | 309 | 2.6 | 11.3 | 0.00 | 0.00 | 0.00 | 60 | 1018.9 |
| 20260901204716 | 80 | 24 | 1.7 | 1.7 | 0.00 | 0.00 | 0.00 | 60 | 1018.7 |
| 20260901204212 | 80 | 339 | 1.7 | 5.2 | 0.00 | 0.00 | 0.00 | 59 | 1018.9 |
| 20260901203707 | 80 | 292 | 1.7 | 3.5 | 0.00 | 0.00 | 0.00 | 59 | 1018.8 |
| 20260901203201 | 80 | 124 | 0.9 | 3.5 | 0.00 | 0.00 | 0.00 | 59 | 1018.9 |
| 20260901202701 | 79 | 112 | 0.9 | 2.6 | 0.00 | 0.00 | 0.00 | 60 | 1018.7 |
| 20260901202157 | 79 | 64 | 0.0 | 1.7 | 0.00 | 0.00 | 0.00 | 60 | 1018.9 |
| 20260901201652 | 79 | 273 | 3.5 | 6.1 | 0.00 | 0.00 | 0.00 | 59 | 1019.0 |
| 20260901201151 | 80 | 173 | 0.9 | 1.7 | 0.00 | 0.00 | 0.00 | 58 | 1019.1 |
| 20260901200651 | 80 | 298 | 0.9 | 6.1 | 0.00 | 0.00 | 0.00 | 59 | 1019.2 |
| 20260901200147 | 80 | 73 | 1.7 | 5.2 | 0.00 | 0.00 | 0.00 | 58 | 1019.1 |
| 20260901195643 | 80 | 156 | 2.6 | 2.6 | 0.00 | 0.00 | 0.00 | 58 | 1019.3 |
| 20260901195138 | 79 | 113 | 0.9 | 7.0 | 0.00 | 0.00 | 0.00 | 59 | 1019.3 |
| 20260901194633 | 80 | 166 | 0.9 | 2.6 | 0.00 | 0.00 | 0.00 | 59 | 1019.2 |
| 20260901194129 | 80 | 155 | 0.9 | 5.2 | 0.00 | 0.00 | 0.00 | 59 | 1019.6 |
| 20260901193624 | 80 | 15 | 0.9 | 5.2 | 0.00 | 0.00 | 0.00 | 59 | 1019.4 |
| 20260901193118 | 80 | 119 | 0.9 | 1.7 | 0.00 | 0.00 | 0.00 | 60 | 1019.7 |
| 20260901192613 | 80 | 69 | 0.9 | 1.7 | 0.00 | 0.00 | 0.00 | 60 | 1019.4 |
| 20260901192108 | 79 | 98 | 1.7 | 1.7 | 0.00 | 0.00 | 0.00 | 59 | 1019.6 |
| 20260901191604 | 80 | 13 | 2.6 | 3.5 | 0.00 | 0.00 | 0.00 | 60 | 1019.6 |
| 20260901191100 | 80 | 180 | 2.6 | 6.1 | 0.00 | 0.00 | 0.00 | 58 | 1019.6 |
| 20260901190556 | 80 | 303 | 1.7 | 6.1 | 0.00 | 0.00 | 0.00 | 59 | 1019.6 |
| 20260901190055 | 79 | 140 | 0.0 | 2.6 | 0.00 | 0.00 | 0.00 | 60 | 1019.8 |
| 20260901185553 | 79 | 186 | 3.5 | 5.2 | 0.00 | 0.00 | 0.00 | 59 | 1019.7 |
| 20260901185052 | 80 | 90 | 1.7 | 5.2 | 0.00 | 0.00 | 0.00 | 58 | 1019.4 |
| 20260901184548 | 80 | 305 | 5.2 | 7.0 | 0.00 | 0.00 | 0.00 | 58 | 1019.7 |
| 20260901184043 | 80 | 162 | 1.7 | 2.6 | 0.00 | 0.00 | 0.00 | 58 | 1019.6 |
| 20260901183538 | 79 | 267 | 1.7 | 2.6 | 0.00 | 0.00 | 0.00 | 58 | 1019.7 |
| 20260901183033 | 79 | 63 | 0.9 | 2.6 | 0.00 | 0.00 | 0.00 | 59 | 1019.7 |
| 20260901182529 | 79 | 163 | 0.0 | 2.6 | 0.00 | 0.00 | 0.00 | 59 | 1019.6 |
| 20260901182024 | 79 | 148 | 0.9 | 3.5 | 0.00 | 0.00 | 0.00 | 57 | 1019.8 |
| 20260901181524 | 80 | 262 | 0.9 | 1.7 | 0.00 | 0.00 | 0.00 | 57 | 1019.7 |
| 20260901181023 | 80 | 141 | 0.0 | 1.7 | 0.00 | 0.00 | 0.00 | 59 | 1019.4 |
| 20260901180521 | 78 | 172 | 1.7 | 2.6 | 0.00 | 0.00 | 0.00 | 56 | 1019.6 |
| 20260901180016 | 79 | 231 | 1.7 | 2.6 | 0.00 | 0.00 | 0.00 | 56 | 1019.4 |
| 20260901175510 | 77 | 87 | 0.0 | 2.6 | 0.00 | 0.00 | 0.00 | 59 | 1019.4 |
| 20260901175004 | 77 | 179 | 1.7 | 2.6 | 0.00 | 0.00 | 0.00 | 61 | 1019.3 |
| 20260901174500 | 76 | 115 | 0.0 | 0.9 | 0.00 | 0.00 | 0.00 | 62 | 1019.4 |
| 20260901173956 | 76 | 103 | 0.0 | 0.9 | 0.00 | 0.00 | 0.00 | 63 | 1019.6 |
| 20260901173451 | 75 | 210 | 2.6 | 5.2 | 0.00 | 0.00 | 0.00 | 63 | 1019.6 |
| 20260901172947 | 75 | 296 | 0.9 | 0.9 | 0.00 | 0.00 | 0.00 | 65 | 1019.6 |
| 20260901172443 | 75 | 66 | 0.0 | 2.6 | 0.00 | 0.00 | 0.00 | 66 | 1019.4 |
| 20260901171940 | 74 | 52 | 0.9 | 0.9 | 0.00 | 0.00 | 0.00 | 67 | 1019.4 |
| 20260901171439 | 74 | 226 | 0.9 | 1.7 | 0.00 | 0.00 | 0.00 | 67 | 1019.1 |
| 20260901170938 | 73 | 110 | 1.7 | 1.7 | 0.00 | 0.00 | 0.00 | 69 | 1019.3 |
| 20260901170433 | 73 | 102 | 1.7 | 1.7 | 0.00 | 0.00 | 0.00 | 70 | 1019.2 |
| 20260901165932 | 72 | 105 | 0.0 | 0.0 | 0.00 | 0.00 | 0.00 | 73 | 1019.3 |
| 20260901165427 | 71 | 175 | 0.0 | 0.9 | 0.00 | 0.00 | 0.00 | 75 | 1019.7 |
| 20260901164924 | 70 | 120 | 1.7 | 1.7 | 0.00 | 0.00 | 0.00 | 78 | 1019.8 |
| 20260901164419 | 69 | 225 | 1.7 | 2.6 | 0.00 | 0.00 | 0.00 | 78 | 1019.7 |
| 20260901163919 | 69 | 271 | 2.6 | 3.5 | 0.00 | 0.00 | 0.00 | 78 | 1019.9 |
| 20260901163414 | 69 | 289 | 2.6 | 3.5 | 0.00 | 0.00 | 0.00 | 79 | 1019.8 |
| 20260901162908 | 69 | 203 | 0.9 | 2.6 | 0.00 | 0.00 | 0.00 | 79 | 1019.8 |
| 20260901162408 | 70 | 41 | 1.7 | 3.5 | 0.00 | 0.00 | 0.00 | 79 | 1019.6 |
| 20260901161907 | 69 | 81 | 0.0 | 0.9 | 0.00 | 0.00 | 0.00 | 79 | 1019.6 |
| 20260901161407 | 70 | 222 | 1.7 | 3.5 | 0.00 | 0.00 | 0.00 | 79 | 1019.4 |
| 20260901160901 | 70 | 94 | 0.0 | 0.9 | 0.00 | 0.00 | 0.00 | 78 | 1019.4 |
| 20260901160358 | 69 | 98 | 0.0 | 0.9 | 0.00 | 0.00 | 0.00 | 79 | 1019.4 |
| 20260901155857 | 68 | 94 | 0.0 | 0.0 | 0.00 | 0.00 | 0.00 | 83 | 1019.7 |
| 20260901155352 | 67 | 85 | 1.7 | 2.6 | 0.00 | 0.00 | 0.00 | 82 | 1019.1 |
| 20260901154849 | 67 | 116 | 0.9 | 1.7 | 0.00 | 0.00 | 0.00 | 84 | 1019.2 |
| 20260901154348 | 66 | 136 | 0.0 | 0.9 | 0.00 | 0.00 | 0.00 | 84 | 1019.2 |
| 20260901153843 | 64 | 139 | 0.0 | 0.9 | 0.00 | 0.00 | 0.00 | 88 | 1019.3 |
| 20260901153337 | 64 | 74 | 0.0 | 0.0 | 0.00 | 0.00 | 0.00 | 91 | 1019.4 |
| 20260901152836 | 62 | 164 | 0.0 | 0.0 | 0.00 | 0.00 | 0.00 | 93 | 1019.2 |
| 20260901152336 | 61 | 81 | 0.0 | 0.0 | 0.00 | 0.00 | 0.00 | 98 | 1019.3 |
| 20260901151831 | 60 | 104 | 0.0 | 0.0 | 0.00 | 0.00 | 0.00 | 99 | 1019.3 |
| 20260901151326 | 60 | 151 | 0.0 | 0.0 | 0.00 | 0.00 | 0.00 | 99 | 1019.4 |
| 20260901150820 | 59 | 139 | 0.0 | 0.0 | 0.00 | 0.00 | 0.00 | 99 | 1019.3 |
| 20260901150318 | 59 | 196 | 0.0 | 0.0 | 0.00 | 0.00 | 0.00 | 99 | 1019.4 |
| 20260901145815 | 59 | 115 | 0.0 | 0.0 | 0.00 | 0.00 | 0.00 | 99 | 1019.3 |
| 20260901145314 | 59 | 226 | 0.0 | 0.0 | 0.00 | 0.00 | 0.00 | 99 | 1019.4 |
| 20260901144805 | 59 | 180 | 0.0 | 0.0 | 0.00 | 0.00 | 0.00 | 99 | 1019.2 |
| 20260901144301 | 59 | 119 | 0.0 | 0.0 | 0.00 | 0.00 | 0.00 | 99 | 1019.2 |
| 20260901143756 | 59 | 141 | 0.0 | 0.0 | 0.00 | 0.00 | 0.00 | 99 | 1019.1 |
| 20260901143253 | 59 | 145 | 0.0 | 0.0 | 0.00 | 0.00 | 0.00 | 99 | 1018.9 |
| 20260901142749 | 59 | 154 | 0.0 | 0.0 | 0.00 | 0.00 | 0.00 | 99 | 1018.9 |
| 20260901142247 | 58 | 141 | 0.0 | 0.0 | 0.00 | 0.00 | 0.00 | 99 | 1018.9 |
| 20260901141742 | 58 | 137 | 0.0 | 0.0 | 0.00 | 0.00 | 0.00 | 99 | 1018.9 |
| 20260901141237 | 58 | 169 | 0.0 | 0.0 | 0.00 | 0.00 | 0.00 | 99 | 1018.8 |
| 20260901140736 | 57 | 144 | 0.0 | 0.0 | 0.00 | 0.00 | 0.00 | 99 | 1018.7 |
| 20260901140234 | 57 | 121 | 0.0 | 0.0 | 0.00 | 0.00 | 0.00 | 99 | 1018.3 |
| 20260901135729 | 57 | 133 | 0.0 | 0.0 | 0.00 | 0.00 | 0.00 | 99 | 1018.5 |
| 20260901135224 | 57 | 142 | 0.0 | 0.0 | 0.00 | 0.00 | 0.00 | 99 | 1018.3 |
| 20260901134720 | 57 | 142 | 0.0 | 0.0 | 0.00 | 0.00 | 0.00 | 99 | 1018.4 |
| 20260901134220 | 57 | 131 | 0.0 | 0.9 | 0.00 | 0.00 | 0.00 | 99 | 1018.2 |
| 20260901133719 | 57 | 103 | 1.7 | 2.6 | 0.00 | 0.00 | 0.00 | 99 | 1018.3 |
| 20260901133218 | 57 | 102 | 0.9 | 1.7 | 0.00 | 0.00 | 0.00 | 99 | 1018.1 |
| 20260901132718 | 57 | 110 | 0.0 | 0.9 | 0.00 | 0.00 | 0.00 | 99 | 1018.3 |
| 20260901132218 | 57 | 121 | 0.0 | 2.6 | 0.00 | 0.00 | 0.00 | 99 | 1018.1 |
| 20260901131713 | 57 | 94 | 1.7 | 3.5 | 0.00 | 0.00 | 0.00 | 99 | 1018.2 |
| 20260901131206 | 57 | 82 | 1.7 | 3.5 | 0.00 | 0.00 | 0.00 | 99 | 1018.2 |
| 20260901130701 | 58 | 122 | 0.0 | 1.7 | 0.00 | 0.00 | 0.00 | 99 | 1018.3 |
| 20260901130200 | 58 | 114 | 0.0 | 0.9 | 0.00 | 0.00 | 0.00 | 99 | 1018.5 |
| 20260901125659 | 58 | 112 | 0.0 | 0.9 | 0.00 | 0.00 | 0.00 | 99 | 1018.5 |
| 20260901125154 | 58 | 148 | 0.0 | 0.0 | 0.00 | 0.00 | 0.00 | 99 | 1018.5 |
| 20260901124649 | 58 | 134 | 0.0 | 0.0 | 0.00 | 0.00 | 0.00 | 99 | 1018.4 |
| 20260901124148 | 58 | 113 | 0.0 | 0.0 | 0.00 | 0.00 | 0.00 | 99 | 1018.4 |
| 20260901123644 | 58 | 133 | 0.0 | 0.0 | 0.00 | 0.00 | 0.00 | 99 | 1018.4 |
| 20260901123143 | 58 | 112 | 0.0 | 0.0 | 0.00 | 0.00 | 0.00 | 99 | 1018.5 |
| 20260901122641 | 58 | 126 | 0.0 | 0.0 | 0.00 | 0.00 | 0.00 | 99 | 1018.6 |
| 20260901122137 | 58 | 141 | 0.0 | 0.0 | 0.00 | 0.00 | 0.00 | 99 | 1018.4 |
| 20260901121631 | 58 | 140 | 0.0 | 0.0 | 0.00 | 0.00 | 0.00 | 99 | 1018.5 |
| 20260901121126 | 58 | 140 | 0.0 | 0.0 | 0.00 | 0.00 | 0.00 | 99 | 1018.5 |
| 20260901120621 | 58 | 139 | 0.0 | 0.0 | 0.00 | 0.00 | 0.00 | 99 | 1018.4 |
| 20260901120116 | 58 | 137 | 0.0 | 0.0 | 0.00 | 0.00 | 0.00 | 99 | 1018.4 |
| 20260901115611 | 58 | 131 | 0.0 | 0.0 | 0.00 | 0.00 | 0.00 | 99 | 1018.2 |
| 20260901115108 | 58 | 154 | 0.0 | 0.0 | 0.00 | 0.00 | 0.00 | 99 | 1018.1 |
| 20260901114604 | 58 | 161 | 0.0 | 0.9 | 0.00 | 0.00 | 0.00 | 99 | 1018.3 |
| 20260901114102 | 58 | 149 | 0.0 | 0.0 | 0.00 | 0.00 | 0.00 | 99 | 1018.3 |
| 20260901113601 | 58 | 181 | 0.0 | 1.7 | 0.00 | 0.00 | 0.00 | 99 | 1018.3 |
| 20260901113052 | 58 | 153 | 0.0 | 0.0 | 0.00 | 0.00 | 0.00 | 99 | 1018.4 |
| 20260901112551 | 58 | 173 | 0.0 | 0.0 | 0.00 | 0.00 | 0.00 | 99 | 1018.4 |
| 20260901112045 | 58 | 174 | 0.0 | 0.0 | 0.00 | 0.00 | 0.00 | 99 | 1018.2 |
| 20260901111544 | 58 | 114 | 0.0 | 0.0 | 0.00 | 0.00 | 0.00 | 99 | 1018.3 |
| 20260901111043 | 58 | 155 | 0.0 | 0.0 | 0.00 | 0.00 | 0.00 | 99 | 1018.3 |
| 20260901110539 | 57 | 82 | 0.0 | 0.0 | 0.00 | 0.00 | 0.00 | 99 | 1018.3 |
| 20260901110034 | 57 | 158 | 0.0 | 0.0 | 0.00 | 0.00 | 0.00 | 99 | 1018.6 |
| 20260901105531 | 57 | 272 | 1.7 | 1.7 | 0.00 | 0.00 | 0.00 | 99 | 1018.2 |
| 20260901105030 | 56 | 222 | 0.9 | 1.7 | 0.00 | 0.00 | 0.00 | 99 | 1018.2 |
| 20260901104526 | 57 | 195 | 0.0 | 0.9 | 0.00 | 0.00 | 0.00 | 99 | 1018.2 |
| 20260901104021 | 57 | 172 | 0.0 | 0.0 | 0.00 | 0.00 | 0.00 | 99 | 1018.1 |
| 20260901103515 | 58 | 155 | 0.0 | 0.0 | 0.00 | 0.00 | 0.00 | 99 | 1017.9 |
| 20260901103012 | 58 | 131 | 0.0 | 0.0 | 0.00 | 0.00 | 0.00 | 99 | 1018.0 |
| 20260901102511 | 58 | 129 | 0.0 | 0.9 | 0.00 | 0.00 | 0.00 | 99 | 1018.0 |
| 20260901102006 | 58 | 119 | 1.7 | 1.7 | 0.00 | 0.00 | 0.00 | 99 | 1018.1 |
| 20260901101502 | 58 | 95 | 1.7 | 2.6 | 0.00 | 0.00 | 0.00 | 99 | 1018.0 |
| 20260901100955 | 59 | 119 | 0.0 | 0.0 | 0.00 | 0.00 | 0.00 | 99 | 1018.1 |
| 20260901100450 | 58 | 125 | 0.0 | 0.0 | 0.00 | 0.00 | 0.00 | 99 | 1018.0 |
| 20260901095943 | 58 | 106 | 0.0 | 0.0 | 0.00 | 0.00 | 0.00 | 99 | 1018.2 |
| 20260901095442 | 58 | 140 | 0.0 | 0.0 | 0.00 | 0.00 | 0.00 | 99 | 1018.2 |
| 20260901094936 | 58 | 163 | 0.0 | 0.0 | 0.00 | 0.00 | 0.00 | 99 | 1018.3 |
| 20260901094435 | 57 | 163 | 0.0 | 0.0 | 0.00 | 0.00 | 0.00 | 99 | 1018.3 |
| 20260901093929 | 57 | 163 | 0.0 | 0.0 | 0.00 | 0.00 | 0.00 | 99 | 1018.3 |
| 20260901093424 | 57 | 164 | 0.0 | 0.0 | 0.00 | 0.00 | 0.00 | 99 | 1018.2 |
| 20260901092919 | 57 | 165 | 0.0 | 0.0 | 0.00 | 0.00 | 0.00 | 99 | 1018.4 |
| 20260901092415 | 58 | 153 | 0.0 | 0.0 | 0.00 | 0.00 | 0.00 | 99 | 1018.3 |
| 20260901091911 | 58 | 162 | 0.0 | 0.0 | 0.00 | 0.00 | 0.00 | 99 | 1018.3 |
| 20260901091410 | 58 | 171 | 0.0 | 0.0 | 0.00 | 0.00 | 0.00 | 99 | 1018.1 |
| 20260901090905 | 58 | 161 | 0.0 | 0.0 | 0.00 | 0.00 | 0.00 | 99 | 1018.3 |
| 20260901090359 | 57 | 171 | 0.0 | 0.0 | 0.00 | 0.00 | 0.00 | 99 | 1018.5 |
| 20260901085856 | 57 | 159 | 0.0 | 0.0 | 0.00 | 0.00 | 0.00 | 98 | 1018.5 |
| 20260901085351 | 57 | 158 | 0.0 | 0.0 | 0.00 | 0.00 | 0.00 | 98 | 1018.4 |
| 20260901084847 | 57 | 165 | 0.0 | 0.0 | 0.00 | 0.00 | 0.00 | 98 | 1018.5 |
| 20260901084343 | 57 | 168 | 0.0 | 0.0 | 0.00 | 0.00 | 0.00 | 98 | 1018.4 |
| 20260901083839 | 58 | 170 | 0.0 | 0.0 | 0.00 | 0.00 | 0.00 | 98 | 1018.3 |
| 20260901083338 | 58 | 169 | 0.0 | 0.0 | 0.00 | 0.00 | 0.00 | 98 | 1018.4 |
| 20260901082836 | 57 | 182 | 0.0 | 0.0 | 0.00 | 0.00 | 0.00 | 98 | 1018.4 |
| 20260901082332 | 57 | 174 | 0.0 | 0.0 | 0.00 | 0.00 | 0.00 | 98 | 1018.7 |
| 20260901081827 | 57 | 211 | 0.0 | 0.0 | 0.00 | 0.00 | 0.00 | 98 | 1018.6 |
| 20260901081322 | 57 | 165 | 0.0 | 0.0 | 0.00 | 0.00 | 0.00 | 97 | 1018.5 |
| 20260901080817 | 57 | 165 | 0.0 | 0.0 | 0.00 | 0.00 | 0.00 | 97 | 1018.4 |
| 20260901080316 | 57 | 165 | 0.0 | 0.0 | 0.00 | 0.00 | 0.00 | 97 | 1018.4 |
| 20260901075810 | 57 | 165 | 0.0 | 0.0 | 0.00 | 0.00 | 0.00 | 97 | 1018.3 |
| 20260901075307 | 57 | 165 | 0.0 | 0.0 | 0.00 | 0.00 | 0.00 | 97 | 1018.6 |
| 20260901074801 | 57 | 165 | 0.0 | 0.0 | 0.00 | 0.00 | 0.00 | 97 | 1018.4 |
| 20260901074255 | 57 | 165 | 0.0 | 0.0 | 0.00 | 0.00 | 0.00 | 97 | 1018.7 |
| 20260901073751 | 57 | 165 | 0.0 | 0.0 | 0.00 | 0.00 | 0.00 | 97 | 1018.7 |
| 20260901073246 | 57 | 165 | 0.0 | 0.0 | 0.00 | 0.00 | 0.00 | 97 | 1018.3 |
| 20260901072742 | 58 | 167 | 0.0 | 0.0 | 0.00 | 0.00 | 0.00 | 97 | 1018.4 |
| 20260901072236 | 58 | 168 | 0.0 | 0.0 | 0.00 | 0.00 | 0.00 | 97 | 1018.4 |
| 20260901071730 | 58 | 173 | 0.0 | 0.0 | 0.00 | 0.00 | 0.00 | 97 | 1018.6 |
| 20260901071224 | 58 | 165 | 0.0 | 0.0 | 0.00 | 0.00 | 0.00 | 97 | 1018.3 |
| 20260901070718 | 58 | 165 | 0.0 | 0.0 | 0.00 | 0.00 | 0.00 | 97 | 1018.1 |
| 20260901070214 | 59 | 159 | 0.0 | 0.0 | 0.00 | 0.00 | 0.00 | 97 | 1018.3 |
| 20260901065713 | 58 | 171 | 0.0 | 0.0 | 0.00 | 0.00 | 0.00 | 97 | 1018.5 |
| 20260901065208 | 58 | 170 | 0.0 | 0.0 | 0.00 | 0.00 | 0.00 | 96 | 1018.3 |
| 20260901064705 | 58 | 165 | 0.0 | 0.0 | 0.00 | 0.00 | 0.00 | 96 | 1018.4 |
| 20260901064201 | 58 | 165 | 0.0 | 0.0 | 0.00 | 0.00 | 0.00 | 96 | 1018.5 |
| 20260901063658 | 59 | 165 | 0.0 | 0.0 | 0.00 | 0.00 | 0.00 | 96 | 1018.2 |
| 20260901063154 | 59 | 169 | 0.0 | 0.0 | 0.00 | 0.00 | 0.00 | 96 | 1018.2 |
| 20260901062649 | 59 | 185 | 0.0 | 0.0 | 0.00 | 0.00 | 0.00 | 96 | 1018.3 |
| 20260901062145 | 59 | 162 | 0.0 | 0.0 | 0.00 | 0.00 | 0.00 | 96 | 1018.0 |
| 20260901061641 | 59 | 166 | 0.0 | 0.0 | 0.00 | 0.00 | 0.00 | 95 | 1018.2 |
| 20260901061140 | 59 | 160 | 0.0 | 0.0 | 0.00 | 0.00 | 0.00 | 95 | 1018.4 |